TimeMST,TemperatureF,Dew PointF,Humidity,Sea Level PressureIn,VisibilityMPH,Wind Direction,Wind SpeedMPH,Gust SpeedMPH,PrecipitationIn,Events,Conditions,WindDirDegrees,DateUTC
12:53 AM,21.0,17.1,85,30.35,10.0,WSW,4.6,-,N/A,,Clear,240,2013-02-13 07:53:00
1:53 AM,21.9,18.0,85,30.32,10.0,Calm,Calm,-,N/A,,Clear,0,2013-02-13 08:53:00
2:53 AM,23.0,19.0,85,30.33,10.0,NNE,4.6,-,N/A,,Clear,20,2013-02-13 09:53:00
3:53 AM,21.9,18.0,85,30.33,10.0,West,3.5,-,N/A,,Clear,270,2013-02-13 10:53:00
4:53 AM,21.2,17.6,86,30.24,10.0,Calm,Calm,-,N/A,,Clear,0,2013-02-13 11:53:00
5:53 AM,21.9,16.0,78,30.34,10.0,Calm,Calm,-,N/A,,Clear,0,2013-02-13 12:53:00
6:53 AM,21.0,15.1,78,30.35,10.0,Calm,Calm,-,N/A,,Clear,0,2013-02-13 13:53:00
7:53 AM,21.0,16.0,81,30.37,10.0,Calm,Calm,-,N/A,,Clear,0,2013-02-13 14:53:00
8:53 AM,26.1,19.0,75,30.36,10.0,SE,6.9,-,N/A,,Clear,130,2013-02-13 15:53:00
9:53 AM,28.0,17.1,63,30.37,10.0,SSE,4.6,-,N/A,,Clear,150,2013-02-13 16:53:00
10:53 AM,32.0,17.1,54,30.37,10.0,Calm,Calm,-,N/A,,Clear,0,2013-02-13 17:53:00
11:53 AM,30.9,21.9,69,30.36,10.0,NW,9.2,-,N/A,,Clear,310,2013-02-13 18:53:00
12:53 PM,33.1,21.9,64,30.33,10.0,NW,8.1,-,N/A,,Clear,320,2013-02-13 19:53:00
1:53 PM,34.0,21.9,61,30.30,10.0,NNW,6.9,-,N/A,,Clear,330,2013-02-13 20:53:00
2:53 PM,35.1,19.9,54,30.27,10.0,NNW,6.9,-,N/A,,Clear,330,2013-02-13 21:53:00
3:53 PM,36.0,19.9,52,30.26,10.0,WNW,4.6,-,N/A,,Clear,290,2013-02-13 22:53:00
4:53 PM,36.0,21.0,55,30.25,10.0,North,6.9,-,N/A,,Clear,360,2013-02-13 23:53:00
5:53 PM,33.1,23.0,66,30.25,10.0,Calm,Calm,-,N/A,,Clear,0,2013-02-14 00:53:00
6:53 PM,30.9,24.1,76,30.26,10.0,West,4.6,-,N/A,,Clear,260,2013-02-14 01:53:00
7:53 PM,30.0,24.1,79,30.25,10.0,Calm,Calm,-,N/A,,Clear,0,2013-02-14 02:53:00
8:53 PM,30.0,23.0,75,30.25,10.0,Calm,Calm,-,N/A,,Clear,0,2013-02-14 03:53:00
9:53 PM,28.0,25.0,88,30.25,10.0,WSW,3.5,-,N/A,,Clear,250,2013-02-14 04:53:00
10:53 PM,27.0,23.0,85,30.24,10.0,Calm,Calm,-,N/A,,Clear,0,2013-02-14 05:53:00
11:53 PM,26.1,24.1,92,30.25,10.0,Calm,Calm,-,N/A,,Clear,0,2013-02-14 06:53:00